Weather History for George, South Africa

Change the Weather History Date:

Sunday, November 11, 2012

  Actual Average Record
Temperature  
Mean Temperature 68 °F -  
Max Temperature 85 °F 70 °F 89 °F (1999)
Min Temperature 52 °F 54 °F 46 °F (2007)
Cooling Degree Days 4    
Growing Degree Days 18 (Base 50)    
Moisture  
Dew Point 57 °F    
Average Humidity 75    
Maximum Humidity 94    
Minimum Humidity 42    
Precipitation  
Precipitation 0.00 in - - ()
Sea Level Pressure  
Sea Level Pressure 29.83 in    
Wind  
Wind Speed 6 mph ()    
Max Wind Speed 20 mph    
Max Gust Speed -    
Visibility 7.4 miles    
Events Fog    
Averages and records for this station are not official NWS values.
T = Trace of Precipitation, MM = Missing Value Source: Averaged Metar Reports

Daily Weather History Graph

Daily Weather History Graph

Search for Another Location

Airport:

Trip Planner

Search our weather history database for the weather conditions in past years. The results will help you decide how hot, cold, wet, or windy it might be!

Date:

Astronomy

Nov. 11, 2012 Rise Set
Actual Time 5:21 AM SAST 7:08 PM SAST
Civil Twilight 4:53 AM SAST 7:35 PM SAST
Nautical Twilight 4:20 AM SAST 8:08 PM SAST
Astronomical Twilight 3:46 AM SAST 8:43 PM SAST
Moon 3:17 AM SAST (11/11) 4:30 PM SAST (11/11)
Length of Visible Light 14h 42m
Length of Day
13h 47m
Waning Crescent, 9% of the Moon is Illuminated
Nov 11
Waning Crescent
Nov 14
New
Nov 20
First Quarter
Nov 28
Full
Dec 6
Last Quarter

Hourly Weather History & Observations

Time (SAST) Temp. Heat Index Dew Point Humidity Pressure Visibility Wind Dir Wind Speed Gust Speed Precip Events Conditions
2:00 AM 55 °F - 54 °F 93% 29.86 in 6 mi 1.2 mph - -  
3:00 AM 53.6 °F - 51.8 °F 94% 29.83 in - North 3.5 mph - N/A   Clear
4:00 AM 55.4 °F - 51.8 °F 88% 29.80 in - WNW 3.5 mph - N/A   Clear
5:00 AM 53 °F - 50 °F 86% 29.81 in 12 mi 3.5 mph - -  
5:00 AM 53.6 °F - 50.0 °F 88% 29.80 in - North 3.5 mph - N/A   Clear
6:00 AM 55.4 °F - 51.8 °F 88% 29.77 in - NNE 3.5 mph - N/A   Clear
7:00 AM 60.8 °F - 55.4 °F 82% 29.77 in - West 3.5 mph - N/A   Clear
8:00 AM 67 °F - 60 °F 73% 29.78 in 12 mi West 6.9 mph - -  
8:00 AM 68.0 °F - 59.0 °F 73% 29.77 in - WSW 4.6 mph - N/A   Clear
9:00 AM 77.0 °F - 62.6 °F 61% 29.77 in - West 3.5 mph - N/A   Clear
10:00 AM 78.8 °F - 57.2 °F 47% 29.77 in - SSW 3.5 mph - N/A   Clear
11:00 AM 77 °F - 59 °F 44% 29.74 in 25 mi SSW 8.1 mph - -  
11:00 AM 77.0 °F - 57.2 °F 50% 29.74 in - SSW 9.2 mph - N/A   Clear
12:00 PM 82.4 °F 82.0 °F 57.2 °F 42% 29.74 in - SSW 4.6 mph - N/A   Clear
1:00 PM 75.2 °F - 62.6 °F 65% 29.77 in 6.2 mi SSW 11.5 mph - N/A   Partly Cloudy
2:00 PM 68 °F - 61 °F 71% 29.80 in 12 mi SSW 16.1 mph - -   Partly Cloudy
2:00 PM 68.0 °F - 60.8 °F 78% 29.77 in 6.2 mi SSW 17.3 mph - N/A   Scattered Clouds
3:00 PM 68.0 °F - 60.8 °F 78% 29.80 in 6.2 mi SSW 11.5 mph - N/A   Mostly Cloudy
4:00 PM 66.2 °F - 60.8 °F 83% 29.83 in 6.2 mi SW 19.6 mph - N/A   Mostly Cloudy
5:00 PM 67 °F - 60 °F 72% 29.86 in 5 mi SSW 10.4 mph - - Fog Light Fog
5:00 PM 68.0 °F - 60.8 °F 78% 29.86 in 5.0 mi SSW 10.4 mph - N/A Fog Scattered Clouds
6:00 PM 64.4 °F - 59.0 °F 83% 29.89 in 6.2 mi SW 13.8 mph - N/A   Mostly Cloudy
7:00 PM 62.6 °F - 59.0 °F 88% 29.92 in 6.2 mi SW 10.4 mph - N/A   Scattered Clouds
8:00 PM 63 °F - 57 °F 76% 29.96 in 12 mi SW 11.5 mph - -   Mostly Cloudy
8:00 PM 62.6 °F - 57.2 °F 82% 29.95 in 6.2 mi SW 11.5 mph - N/A   Mostly Cloudy
9:00 PM 62.6 °F - 55.4 °F 77% 29.98 in 6.2 mi WSW 12.7 mph - N/A   Mostly Cloudy
10:00 PM 60.8 °F - 55.4 °F 82% 29.98 in 6.2 mi West 9.2 mph - N/A   Overcast
11:00 PM 60.8 °F - 55.4 °F 82% 29.98 in 6.2 mi West 8.1 mph - N/A   Overcast